Wind_Speed
13 12 11 12 12 12 11 10 9 8 7 7 7 7 8 7 7 7 7 7 7 7 7 8 9 10 10 9 9 8 8 7 7 6 6 6 6 7 7 7 6 6 6
13 12 12 12 12 12 11 11 9 9 9 8 8 7 7 7 8 8 7 8 8 8 8 10 10 11 11 11 10 10 9 8 7 7 7 7 8 8 8 8 8 8 8
14 14 13 13 11 11 11 11 11 10 9 8 7 8 7 7 8 7 7 7 8 8 9 10 11 11 12 11 11 10 10 9 9 9 9 9 9 9 9 10 10 10 10
13 13 13 13 12 11 11 12 11 10 9 7 7 7 7 7 7 7 7 7 8 9 9 10 11 12 12 12 12 12 11 11 11 11 10 11 11 11 11 11 12 12 12
13 14 13 13 13 13 11 11 11 9 8 7 7 7 7 7 7 7 8 8 8 9 10 10 12 13 13 13 13 13 13 12 12 12 12 13 13 13 13 13 14 14 14
13 13 13 13 12 12 11 10 10 8 7 7 7 7 7 8 8 9 9 9 10 10 11 11 12 13 14 14 14 14 14 14 14 14 14 15 15 15 15 15 16 16 16
12 12 12 12 12 11 10 9 9 8 8 8 8 8 7 8 8 9 10 11 11 11 11 12 13 13 14 15 15 15 15 15 16 16 16 17 17 17 18 18 18 19 19
11 11 11 12 13 12 10 9 9 9 8 8 8 8 8 8 8 8 9 10 11 11 11 12 13 13 14 15 16 16 16 16 17 18 18 18 19 19 19 19 20 21 21
11 11 11 12 13 12 10 10 10 9 9 9 8 8 8 9 9 9 9 9 10 11 12 13 13 14 15 16 17 17 18 18 18 19 19 19 20 20 21 21 21 22 23
12 12 11 12 11 10 9 9 9 8 8 8 8 8 9 9 9 9 9 9 11 12 12 14 15 15 15 16 17 19 19 20 20 21 21 21 22 22 23 23 24 24 24
12 11 11 11 10 8 8 8 8 8 8 8 8 8 8 9 9 9 10 10 11 11 12 13 15 16 16 17 18 19 20 21 22 22 23 23 23 24 24 25 25 25 25
11 11 11 10 9 8 8 9 8 7 7 7 8 8 8 8 9 10 10 10 11 11 12 13 14 16 17 17 18 19 21 22 22 23 24 25 25 26 26 26 26 26 27
11 11 10 10 9 9 9 9 8 8 7 7 7 8 9 9 9 9 10 10 11 12 12 13 14 15 16 18 19 20 21 22 22 23 24 25 25 26 26 26 27 26 26
11 11 10 10 10 10 10 9 8 7 7 7 8 9 9 10 10 10 10 11 11 12 12 13 14 15 16 18 19 20 21 22 23 24 25 25 26 26 26 26 26 26 25
12 12 12 11 11 11 10 10 9 8 8 8 9 10 10 10 10 10 10 11 12 12 13 14 15 16 17 17 19 20 21 22 23 24 25 24 24 25 26 25 25 26 27
13 13 12 12 11 11 11 10 10 9 10 10 10 10 10 10 11 11 12 12 13 13 14 15 15 16 17 18 18 19 20 21 22 23 24 23 23 24 24 25 25 26 27
13 13 12 12 11 11 11 11 11 11 11 11 11 11 11 11 12 12 12 13 14 14 15 15 16 17 17 18 19 19 20 20 21 22 22 23 23 23 23 24 26 27 28
15 14 13 12 13 13 13 13 12 12 12 13 13 13 13 13 13 13 14 15 15 16 17 17 17 18 18 19 19 19 19 20 21 21 21 22 23 23 24 25 26 27 28
17 16 15 15 15 14 13 13 13 14 14 14 14 14 15 15 15 16 16 16 17 18 18 18 18 19 19 20 20 20 20 20 21 21 21 22 23 24 25 26 26 27 28
19 18 17 17 16 16 15 14 14 15 15 16 16 16 16 16 17 17 18 18 19 19 19 19 20 20 21 21 21 21 21 21 22 23 23 23 24 25 25 26 26 27 27
20 20 19 19 19 18 17 17 17 17 17 18 18 18 18 18 18 19 19 20 20 20 21 21 22 22 23 23 23 23 23 23 23 23 24 24 24 25 25 25 26 27 27
22 22 22 21 21 20 20 19 19 19 19 19 20 20 20 20 21 21 22 22 22 22 23 23 24 24 24 24 24 24 24 24 24 24 25 25 25 25 26 26 27 27 28
23 24 24 24 24 23 22 22 22 22 22 21 21 21 22 22 23 23 24 24 24 25 25 25 25 25 25 25 25 25 25 24 25 25 25 25 26 27 28 28 28 28 29
26 26 26 26 26 26 25 25 24 24 24 23 23 23 24 24 25 25 25 25 25 25 26 26 26 26 26 26 26 26 26 26 25 26 26 26 27 28 28 29 29 29 30
28 28 28 28 28 28 28 28 28 27 26 26 25 25 25 26 26 26 26 26 26 26 26 26 26 26 26 26 27 27 27 27 27 28 28 28 28 28 29 30 30 30 31
30 30 30 30 30 30 30 29 30 30 29 28 28 27 27 27 28 28 28 28 28 27 27 27 27 27 28 28 28 28 29 29 29 29 29 29 29 29 30 31 31 31 32
Wind_Direction
332 332 327 323 320 320 318 310 303 301 288 278 271 267 258 247 239 237 242 235 225 224 220 214 216 214 214 216 219 221 225 227 228 234 238 241 249 256 261 264 268 276 284
324 326 324 321 321 321 319 314 302 294 290 283 275 269 263 253 249 245 244 236 225 222 218 216 216 216 215 217 223 224 226 230 235 239 243 249 256 259 261 266 269 273 277
318 319 320 322 320 318 317 318 310 297 287 279 271 272 268 257 254 247 240 233 227 223 220 220 220 220 220 221 225 228 231 238 243 249 253 254 260 262 265 267 269 272 274
317 320 321 322 316 312 312 312 308 300 287 278 271 267 264 257 249 241 237 229 231 233 233 231 227 224 226 228 231 235 238 241 247 252 258 260 262 264 267 269 270 272 273
313 317 317 316 314 311 307 308 310 296 284 275 269 267 264 255 249 248 242 241 239 238 239 239 233 229 230 233 237 240 243 246 251 254 258 260 262 265 268 270 272 273 274
306 309 313 313 311 311 303 302 308 303 291 276 265 264 260 258 256 251 246 245 246 243 242 239 237 235 234 236 241 243 245 250 253 256 259 261 265 267 269 271 272 274 274
305 309 314 318 318 314 306 298 301 295 290 278 263 261 263 264 260 252 252 251 252 247 243 239 241 242 239 241 243 246 250 253 255 257 261 263 267 270 271 272 273 274 275
301 306 313 318 320 316 309 298 296 292 285 278 267 265 266 265 264 260 258 252 249 247 247 244 244 246 246 246 248 250 253 258 259 260 263 265 268 270 272 273 275 276 275
300 303 310 314 317 313 305 299 295 289 285 277 269 268 272 266 262 265 262 256 252 252 251 248 250 253 254 253 252 253 255 259 262 264 266 268 270 272 272 274 276 277 276
299 302 308 313 317 315 312 310 302 293 285 278 275 275 268 266 264 267 265 260 258 260 260 253 253 255 258 257 256 256 258 260 263 266 267 269 271 272 273 275 276 277 277
297 301 305 310 314 313 310 311 306 296 291 289 283 274 270 267 266 267 266 264 265 264 262 260 260 259 259 258 258 258 260 261 263 267 269 270 272 274 274 276 277 277 277
292 299 303 307 311 308 306 310 309 301 297 287 283 277 271 273 272 268 265 268 267 268 267 265 265 263 262 262 262 263 264 265 266 268 269 271 273 273 275 277 276 277 276
288 297 299 299 302 304 303 306 306 302 298 291 286 284 281 277 275 271 267 272 274 272 272 272 272 270 266 264 266 269 271 269 269 270 272 272 273 274 275 277 277 279 278
281 289 296 298 297 300 299 299 300 302 301 298 296 295 288 281 276 273 273 278 279 278 278 279 279 278 275 272 272 274 276 273 272 272 274 274 275 275 277 277 277 279 279
275 284 293 297 295 295 295 293 293 296 300 302 301 299 295 289 280 276 277 280 282 283 283 286 285 280 280 280 277 278 277 275 274 274 276 277 277 276 277 277 277 279 279
272 279 286 291 292 291 290 289 288 292 296 300 303 301 297 291 285 280 280 281 282 283 285 287 288 283 281 282 280 281 282 278 277 277 276 276 277 278 277 278 280 281 281
268 274 280 284 286 288 284 284 285 289 293 297 300 301 296 294 290 288 286 285 285 286 287 288 288 286 284 283 282 282 283 281 279 279 278 277 278 278 278 281 281 280 281
264 271 277 279 277 280 282 282 285 286 289 292 293 294 294 292 291 290 289 287 287 287 288 289 288 287 286 286 284 285 285 284 282 281 281 282 280 279 280 281 283 285 285
263 267 271 272 276 279 282 282 283 284 285 289 291 292 291 292 291 291 290 289 289 289 290 290 290 288 286 285 284 284 285 286 285 284 284 283 282 283 285 286 285 284 287
259 262 267 269 272 275 279 281 283 286 286 287 290 292 292 291 292 292 291 290 289 289 289 289 290 290 287 285 284 285 286 286 286 286 288 287 286 286 287 287 286 286 287
255 256 261 267 268 271 275 279 284 286 286 287 288 288 290 291 291 291 291 290 288 288 289 289 288 288 287 286 285 286 286 286 285 286 288 288 288 290 290 288 287 288 289
254 256 259 263 266 269 273 276 280 284 284 285 286 286 288 289 290 290 290 290 288 288 288 288 287 287 286 286 286 286 286 286 285 286 288 288 289 291 293 292 292 291 293
254 257 260 262 265 268 270 274 277 282 283 283 285 286 286 288 289 289 289 289 288 288 288 287 288 287 286 286 285 286 287 287 288 289 288 289 289 291 293 293 292 292 293
253 257 260 263 265 267 269 273 277 279 280 281 282 283 285 286 288 289 290 289 289 289 288 287 286 286 285 285 285 285 286 288 289 290 289 288 289 290 292 293 294 294 294
253 257 260 262 263 267 270 273 276 278 277 279 280 281 283 285 287 288 289 289 289 290 288 287 286 286 285 285 285 285 286 286 287 288 288 288 290 291 292 293 294 294 294
254 257 260 263 266 268 271 273 275 276 277 277 278 279 281 284 286 287 288 289 290 289 288 286 286 286 285 284 284 285 285 285 285 286 287 288 290 291 292 293 293 294 294
Height
5911 5909 5907 5905 5903 5902 5900 5899 5897 5896 5896 5896 5895 5895 5895 5895 5895 5895 5896 5897 5897 5898 5899 5900 5901 5903 5904 5905 5906 5907 5908 5909 5910 5910 5910 5911 5911 5911 5911 5911 5911 5911 5911
5910 5908 5906 5904 5902 5900 5898 5897 5895 5894 5894 5894 5894 5894 5894 5894 5894 5894 5894 5895 5895 5897 5898 5899 5900 5901 5902 5904 5905 5906 5907 5908 5908 5909 5909 5910 5911 5910 5910 5910 5910 5909 5909
5908 5906 5904 5902 5900 5899 5897 5895 5894 5893 5892 5892 5892 5892 5892 5893 5893 5893 5893 5893 5894 5895 5896 5897 5898 5899 5901 5902 5903 5904 5906 5906 5907 5907 5908 5908 5908 5908 5908 5908 5908 5907 5907
5907 5905 5902 5900 5899 5897 5895 5894 5892 5891 5890 5890 5890 5890 5890 5891 5891 5891 5892 5892 5892 5894 5894 5895 5896 5898 5899 5900 5901 5902 5903 5904 5905 5905 5906 5906 5906 5906 5906 5906 5905 5905 5905
5905 5903 5901 5899 5897 5895 5894 5892 5891 5889 5889 5889 5889 5889 5889 5889 5889 5890 5890 5890 5891 5892 5892 5893 5894 5895 5897 5898 5899 5900 5901 5902 5902 5902 5903 5903 5903 5903 5903 5903 5903 5902 5902
5903 5901 5899 5897 5895 5893 5892 5891 5890 5888 5888 5888 5888 5887 5887 5887 5887 5888 5888 5888 5889 5890 5890 5891 5892 5893 5894 5895 5896 5897 5898 5898 5899 5899 5900 5900 5900 5900 5900 5900 5899 5899 5899
5901 5899 5897 5895 5893 5891 5890 5889 5888 5887 5886 5886 5886 5886 5886 5885 5885 5886 5886 5886 5887 5887 5888 5888 5889 5890 5891 5892 5893 5894 5894 5895 5896 5896 5896 5896 5896 5896 5896 5896 5895 5895 5894
5898 5897 5895 5893 5891 5889 5888 5887 5886 5885 5885 5884 5884 5884 5883 5883 5883 5883 5883 5883 5884 5884 5885 5886 5886 5887 5888 5889 5890 5891 5891 5892 5892 5892 5892 5892 5892 5892 5892 5892 5891 5890 5890
5896 5895 5893 5892 5889 5887 5886 5884 5884 5883 5882 5882 5882 5882 5881 5881 5881 5881 5881 5881 5881 5882 5883 5883 5883 5884 5885 5885 5886 5887 5887 5888 5888 5888 5888 5888 5887 5887 5887 5887 5886 5886 5885
5895 5893 5892 5890 5887 5885 5884 5882 5882 5881 5881 5880 5880 5880 5879 5879 5879 5879 5879 5878 5879 5879 5879 5880 5880 5881 5881 5881 5882 5882 5883 5883 5883 5883 5883 5883 5882 5882 5882 5881 5880 5880 5879
5893 5892 5890 5888 5886 5884 5883 5882 5881 5880 5879 5878 5878 5878 5877 5877 5877 5877 5876 5876 5876 5876 5877 5877 5877 5877 5877 5877 5877 5878 5878 5878 5878 5878 5878 5877 5877 5876 5876 5875 5875 5874 5873
5891 5890 5888 5886 5885 5883 5882 5880 5879 5878 5877 5877 5876 5876 5875 5875 5874 5874 5874 5874 5874 5874 5874 5874 5873 5873 5873 5873 5873 5873 5873 5873 5873 5872 5872 5871 5871 5870 5870 5869 5868 5867 5866
5888 5887 5886 5884 5883 5882 5880 5879 5878 5877 5876 5876 5875 5874 5873 5872 5872 5872 5871 5871 5871 5871 5871 5870 5870 5869 5869 5869 5868 5868 5868 5867 5867 5867 5866 5865 5865 5864 5864 5863 5862 5861 5860
5886 5885 5884 5883 5881 5880 5879 5878 5877 5876 5875 5874 5873 5872 5871 5870 5869 5869 5869 5868 5868 5867 5867 5867 5866 5865 5865 5864 5864 5863 5862 5862 5861 5861 5860 5859 5858 5858 5857 5856 5855 5854 5853
5883 5882 5881 5880 5879 5878 5877 5876 5875 5874 5873 5872 5871 5869 5868 5867 5867 5867 5866 5865 5865 5864 5864 5863 5862 5861 5860 5860 5859 5858 5857 5856 5855 5855 5854 5853 5852 5851 5850 5850 5848 5847 5846
5880 5879 5878 5877 5876 5875 5874 5874 5873 5872 5871 5870 5869 5867 5866 5865 5864 5864 5863 5863 5862 5861 5860 5859 5858 5857 5856 5855 5854 5853 5852 5851 5850 5849 5848 5847 5846 5845 5844 5843 5842 5841 5839
5876 5876 5875 5874 5873 5873 5872 5871 5870 5869 5869 5868 5866 5865 5864 5863 5862 5861 5860 5859 5858 5857 5856 5855 5854 5853 5852 5851 5849 5848 5847 5846 5844 5843 5842 5841 5840 5839 5838 5836 5835 5833 5832
5873 5872 5872 5871 5870 5870 5869 5869 5868 5867 5866 5865 5864 5863 5861 5860 5859 5858 5857 5856 5855 5854 5852 5851 5850 5848 5847 5846 5845 5843 5842 5840 5839 5838 5836 5835 5834 5833 5831 5830 5828 5826 5825
5868 5868 5868 5868 5867 5867 5866 5865 5865 5864 5863 5862 5861 5860 5858 5857 5856 5854 5853 5852 5851 5849 5848 5846 5845 5843 5842 5841 5840 5838 5837 5835 5834 5832 5831 5829 5828 5827 5825 5823 5821 5819 5817
5863 5864 5864 5864 5864 5863 5863 5862 5861 5860 5859 5858 5857 5856 5855 5853 5851 5850 5849 5847 5846 5844 5843 5842 5840 5838 5837 5836 5834 5833 5831 5830 5828 5826 5825 5823 5821 5820 5818 5816 5813 5812 5810
5858 5859 5859 5859 5859 5859 5859 5858 5857 5856 5855 5854 5853 5852 5850 5848 5847 5845 5844 5842 5841 5839 5838 5836 5834 5833 5831 5830 5828 5827 5825 5823 5822 5820 5818 5817 5815 5813 5811 5808 5806 5805 5802
5852 5853 5854 5854 5854 5854 5853 5853 5852 5851 5850 5849 5847 5846 5845 5843 5842 5840 5838 5837 5835 5834 5832 5830 5828 5826 5825 5823 5822 5820 5819 5817 5815 5814 5812 5810 5808 5806 5804 5801 5799 5797 5795
5846 5847 5847 5848 5848 5848 5848 5847 5846 5845 5844 5843 5841 5840 5839 5837 5836 5834 5833 5831 5829 5827 5825 5824 5822 5820 5818 5816 5815 5813 5812 5810 5808 5806 5804 5803 5801 5799 5796 5794 5791 5789 5787
5839 5840 5840 5841 5841 5841 5841 5841 5840 5839 5837 5836 5835 5834 5833 5831 5830 5828 5826 5824 5822 5820 5818 5817 5815 5813 5811 5810 5808 5806 5804 5803 5801 5799 5797 5795 5793 5791 5789 5786 5784 5781 5779
5832 5832 5833 5833 5833 5833 5833 5833 5832 5831 5830 5829 5828 5827 5826 5824 5823 5821 5819 5817 5815 5813 5811 5809 5808 5806 5804 5802 5801 5799 5797 5795 5794 5792 5790 5788 5786 5783 5781 5778 5776 5773 5770
5824 5824 5825 5825 5825 5825 5825 5825 5824 5824 5822 5822 5820 5819 5818 5816 5815 5813 5811 5809 5808 5806 5804 5802 5800 5798 5797 5794 5793 5791 5789 5787 5786 5784 5782 5779 5777 5775 5772 5770 5767 5764 5761